Retour au catalogue

FENGYUN 1C DEB

ActifSSO
NORAD 30730·DEBRIS·🇨🇳 China

Lancé May 10, 1999 depuis Taiyuan Satellite Launch Center

Loading…

Prochains Passages (prochaines 24 heures)

TLE

FraisSource: Space-Track

Époque: Sep 14, 2026, 08:32 UTC

1 30730U 99025ASQ 26257.35567426  .00001121  00000-0  46882-3 0  9994
2 30730  98.5957 296.6343 0075553 325.2550  97.2500 14.26539636  9241

Suivez FENGYUN 1C DEB en temps réel avec AllMySat

Download on the App Store